Time,TemperatureF,DewpointF,PressureIn,WindDirection,WindDirectionDegrees,WindSpeedMPH,WindSpeedGustMPH,Humidity,HourlyPrecipIn,Conditions,Clouds,dailyrainin,SoftwareType,DateUTC
2013-09-25 00:00:00,67.3,62.3,29.94,WSW,248,0.0,0.0,84,0.00,,,0.00,WUHU216HW,2013-09-25 04:00:00,
2013-09-25 00:01:00,67.3,62.3,29.94,WSW,248,0.0,0.0,84,0.00,,,0.00,WUHU216HW,2013-09-25 04:01:00,
2013-09-25 00:02:00,67.3,62.3,29.94,WSW,248,0.0,0.0,84,0.00,,,0.00,WUHU216HW,2013-09-25 04:02:00,
2013-09-25 00:07:00,67.3,62.3,29.94,WSW,248,0.0,0.0,84,0.00,,,0.00,WUHU216HW,2013-09-25 04:07:00,
2013-09-25 00:30:00,67.5,62.5,29.92,WSW,248,0.0,0.0,84,0.00,,,0.00,WUHU216HW,2013-09-25 04:30:00,
2013-09-25 00:35:00,67.5,62.5,29.92,WSW,248,0.0,0.0,84,0.00,,,0.00,WUHU216HW,2013-09-25 04:35:00,
2013-09-25 01:00:00,66.8,62.1,29.93,WSW,248,0.0,0.0,85,0.00,,,0.00,WUHU216HW,2013-09-25 05:00:00,
2013-09-25 01:05:00,66.8,62.1,29.93,WSW,248,0.0,0.0,85,0.00,,,0.00,WUHU216HW,2013-09-25 05:05:00,
2013-09-25 01:30:00,66.8,62.1,29.91,WSW,248,0.0,0.0,85,0.00,,,0.00,WUHU216HW,2013-09-25 05:30:00,
2013-09-25 01:35:00,66.8,62.1,29.91,WSW,248,0.0,0.0,85,0.00,,,0.00,WUHU216HW,2013-09-25 05:35:00,
2013-09-25 02:08:00,66.4,62.1,29.90,East,90,0.0,0.0,86,0.00,,,0.00,WUHU216HW,2013-09-25 06:08:00,
2013-09-25 02:30:00,66.1,61.8,29.91,East,90,0.0,0.0,86,0.00,,,0.00,WUHU216HW,2013-09-25 06:30:00,
2013-09-25 02:35:00,66.1,61.8,29.91,East,90,0.0,0.0,86,0.00,,,0.00,WUHU216HW,2013-09-25 06:35:00,
2013-09-25 03:00:00,65.5,61.6,29.90,East,90,0.0,0.0,87,0.00,,,0.00,WUHU216HW,2013-09-25 07:00:00,
2013-09-25 03:05:00,65.5,61.6,29.90,East,90,0.0,0.0,87,0.00,,,0.00,WUHU216HW,2013-09-25 07:05:00,
2013-09-25 03:30:00,65.7,61.8,29.90,East,90,0.0,0.0,87,0.00,,,0.00,WUHU216HW,2013-09-25 07:30:00,
2013-09-25 03:35:00,65.7,61.8,29.90,East,90,0.0,0.0,87,0.00,,,0.00,WUHU216HW,2013-09-25 07:35:00,
2013-09-25 04:00:00,65.3,61.8,29.89,East,90,0.0,0.0,88,0.00,,,0.00,WUHU216HW,2013-09-25 08:00:00,
2013-09-25 04:05:00,65.3,61.8,29.89,East,90,0.0,0.0,88,0.00,,,0.00,WUHU216HW,2013-09-25 08:05:00,
2013-09-25 04:30:00,65.3,61.8,29.89,East,90,0.0,0.0,88,0.00,,,0.00,WUHU216HW,2013-09-25 08:30:00,
2013-09-25 04:35:00,65.3,61.8,29.89,East,90,0.0,0.0,88,0.00,,,0.00,WUHU216HW,2013-09-25 08:35:00,
2013-09-25 05:00:00,65.0,61.0,29.88,East,90,0.0,0.0,87,0.00,,,0.00,WUHU216HW,2013-09-25 09:00:00,
2013-09-25 05:05:00,65.0,61.0,29.88,East,90,0.0,0.0,87,0.00,,,0.00,WUHU216HW,2013-09-25 09:05:00,
2013-09-25 05:30:00,64.8,61.2,29.88,East,90,0.0,0.0,88,0.01,,,0.00,WUHU216HW,2013-09-25 09:30:00,
2013-09-25 05:35:00,64.8,61.2,29.88,East,90,0.0,0.0,88,0.01,,,0.00,WUHU216HW,2013-09-25 09:35:00,
2013-09-25 06:00:00,64.4,61.2,29.89,East,90,0.0,0.0,89,0.01,,,0.01,WUHU216HW,2013-09-25 10:00:00,
2013-09-25 06:05:00,64.4,61.2,29.89,East,90,0.0,0.0,89,0.01,,,0.01,WUHU216HW,2013-09-25 10:05:00,
2013-09-25 06:30:00,64.6,61.4,29.88,East,90,0.0,0.0,89,0.02,,,0.01,WUHU216HW,2013-09-25 10:30:00,
2013-09-25 06:35:00,64.6,61.4,29.88,East,90,0.0,0.0,89,0.02,,,0.01,WUHU216HW,2013-09-25 10:35:00,
2013-09-25 07:00:00,64.6,61.8,29.89,East,90,0.0,0.0,90,0.02,,,0.03,WUHU216HW,2013-09-25 11:00:00,
2013-09-25 07:05:00,64.6,61.8,29.89,East,90,0.0,0.0,90,0.02,,,0.03,WUHU216HW,2013-09-25 11:05:00,
2013-09-25 07:30:00,64.4,61.6,29.90,East,90,0.0,0.0,90,0.01,,,0.03,WUHU216HW,2013-09-25 11:30:00,
2013-09-25 07:35:00,64.4,61.6,29.90,East,90,0.0,0.0,90,0.01,,,0.03,WUHU216HW,2013-09-25 11:35:00,
2013-09-25 08:00:00,63.7,60.8,29.91,East,90,0.0,0.0,90,0.01,,,0.04,WUHU216HW,2013-09-25 12:00:00,
2013-09-25 08:05:00,63.7,60.8,29.91,East,90,0.0,0.0,90,0.01,,,0.04,WUHU216HW,2013-09-25 12:05:00,
2013-09-25 08:30:00,63.7,60.8,29.91,East,90,0.0,0.0,90,0.02,,,0.04,WUHU216HW,2013-09-25 12:30:00,
2013-09-25 08:35:00,63.7,60.8,29.91,East,90,0.0,0.0,90,0.02,,,0.04,WUHU216HW,2013-09-25 12:35:00,
2013-09-25 09:00:00,63.4,60.5,29.91,SE,135,0.0,0.0,90,0.02,,,0.06,WUHU216HW,2013-09-25 13:00:00,
2013-09-25 09:05:00,63.4,60.5,29.91,SE,135,0.0,0.0,90,0.02,,,0.06,WUHU216HW,2013-09-25 13:05:00,
2013-09-25 09:30:00,63.7,60.8,29.92,SE,135,0.0,0.0,90,0.02,,,0.06,WUHU216HW,2013-09-25 13:30:00,
2013-09-25 09:35:00,63.7,60.8,29.92,SE,135,0.0,0.0,90,0.02,,,0.06,WUHU216HW,2013-09-25 13:35:00,
2013-09-25 10:00:00,64.1,61.2,29.93,SE,135,0.0,0.0,90,0.04,,,0.08,WUHU216HW,2013-09-25 14:00:00,
2013-09-25 10:05:00,64.1,61.2,29.93,SE,135,0.0,0.0,90,0.04,,,0.08,WUHU216HW,2013-09-25 14:05:00,
2013-09-25 10:30:00,64.4,61.6,29.93,ESE,113,0.0,0.0,90,0.04,,,0.10,WUHU216HW,2013-09-25 14:30:00,
2013-09-25 10:35:00,64.4,61.6,29.93,ESE,113,0.0,0.0,90,0.04,,,0.10,WUHU216HW,2013-09-25 14:35:00,
2013-09-25 11:00:00,65.0,62.4,29.92,SE,135,0.0,0.0,91,0.02,,,0.12,WUHU216HW,2013-09-25 15:00:00,
2013-09-25 11:05:00,65.0,62.4,29.92,SE,135,0.0,0.0,91,0.02,,,0.12,WUHU216HW,2013-09-25 15:05:00,
2013-09-25 11:30:00,65.9,63.5,29.92,SE,135,0.0,0.0,92,0.00,,,0.12,WUHU216HW,2013-09-25 15:30:00,
2013-09-25 11:35:00,65.9,63.5,29.92,SE,135,0.0,0.0,92,0.00,,,0.12,WUHU216HW,2013-09-25 15:35:00,
2013-09-25 12:00:00,65.5,62.6,29.93,SE,135,0.0,0.0,90,0.00,,,0.12,WUHU216HW,2013-09-25 16:00:00,
2013-09-25 12:05:00,65.5,62.6,29.93,SE,135,0.0,0.0,90,0.00,,,0.12,WUHU216HW,2013-09-25 16:05:00,
2013-09-25 12:30:00,65.7,63.3,29.92,SE,135,0.0,0.0,92,0.02,,,0.12,WUHU216HW,2013-09-25 16:30:00,
2013-09-25 12:35:00,65.7,63.3,29.92,SE,135,0.0,0.0,92,0.02,,,0.12,WUHU216HW,2013-09-25 16:35:00,
2013-09-25 13:00:00,65.7,63.0,29.92,SW,225,0.0,0.0,91,0.03,,,0.14,WUHU216HW,2013-09-25 17:00:00,
2013-09-25 13:05:00,65.7,63.0,29.92,SW,225,0.0,0.0,91,0.03,,,0.14,WUHU216HW,2013-09-25 17:05:00,
2013-09-25 13:30:00,65.9,63.2,29.91,SSW,203,0.0,0.0,91,0.04,,,0.15,WUHU216HW,2013-09-25 17:30:00,
2013-09-25 13:35:00,65.9,63.2,29.91,SSW,203,0.0,0.0,91,0.04,,,0.15,WUHU216HW,2013-09-25 17:35:00,
2013-09-25 14:00:00,66.1,63.4,29.90,East,90,0.0,0.0,91,0.07,,,0.18,WUHU216HW,2013-09-25 18:00:00,
2013-09-25 14:05:00,66.1,63.4,29.90,East,90,0.0,0.0,91,0.07,,,0.18,WUHU216HW,2013-09-25 18:05:00,
2013-09-25 14:30:00,66.6,63.8,29.89,SE,135,0.0,0.0,91,0.04,,,0.22,WUHU216HW,2013-09-25 18:30:00,
2013-09-25 14:35:00,66.6,63.8,29.89,SE,135,0.0,0.0,91,0.04,,,0.22,WUHU216HW,2013-09-25 18:35:00,
2013-09-25 15:00:00,67.0,64.2,29.88,WSW,248,0.0,0.0,91,0.00,,,0.22,WUHU216HW,2013-09-25 19:00:00,
2013-09-25 15:05:00,67.0,64.2,29.88,WSW,248,0.0,0.0,91,0.00,,,0.22,WUHU216HW,2013-09-25 19:05:00,
2013-09-25 15:30:00,67.3,64.5,29.87,WSW,248,0.0,0.0,91,0.00,,,0.22,WUHU216HW,2013-09-25 19:30:00,
2013-09-25 15:35:00,67.3,64.5,29.87,WSW,248,0.0,0.0,91,0.00,,,0.22,WUHU216HW,2013-09-25 19:35:00,
2013-09-25 16:00:00,67.5,64.7,29.87,WSW,248,0.0,0.0,91,0.00,,,0.22,WUHU216HW,2013-09-25 20:00:00,
2013-09-25 16:05:00,67.5,64.7,29.87,WSW,248,0.0,0.0,91,0.00,,,0.22,WUHU216HW,2013-09-25 20:05:00,
2013-09-25 16:30:00,67.3,64.5,29.88,WSW,248,0.0,0.0,91,0.00,,,0.22,WUHU216HW,2013-09-25 20:30:00,
2013-09-25 16:35:00,67.3,64.5,29.88,WSW,248,0.0,0.0,91,0.00,,,0.22,WUHU216HW,2013-09-25 20:35:00,
2013-09-25 17:00:00,67.0,64.2,29.87,WSW,248,0.0,0.0,91,0.00,,,0.22,WUHU216HW,2013-09-25 21:00:00,
2013-09-25 17:05:00,67.0,64.2,29.87,WSW,248,0.0,0.0,91,0.00,,,0.22,WUHU216HW,2013-09-25 21:05:00,
2013-09-25 17:30:00,67.0,64.2,29.88,WSW,248,0.0,0.0,91,0.00,,,0.22,WUHU216HW,2013-09-25 21:30:00,
2013-09-25 17:35:00,67.0,64.2,29.88,WSW,248,0.0,0.0,91,0.00,,,0.22,WUHU216HW,2013-09-25 21:35:00,
2013-09-25 18:00:00,66.6,63.8,29.88,West,270,0.0,0.0,91,0.00,,,0.22,WUHU216HW,2013-09-25 22:00:00,
2013-09-25 18:05:00,66.6,63.8,29.88,West,270,0.0,0.0,91,0.00,,,0.22,WUHU216HW,2013-09-25 22:05:00,
2013-09-25 18:30:00,66.4,63.6,29.88,West,270,0.0,0.0,91,0.00,,,0.22,WUHU216HW,2013-09-25 22:30:00,
2013-09-25 18:35:00,66.4,63.6,29.88,West,270,0.0,0.0,91,0.00,,,0.22,WUHU216HW,2013-09-25 22:35:00,
2013-09-25 19:00:00,65.9,63.2,29.89,West,270,0.0,0.0,91,0.00,,,0.22,WUHU216HW,2013-09-25 23:00:00,
2013-09-25 19:05:00,65.9,63.2,29.89,West,270,0.0,0.0,91,0.00,,,0.22,WUHU216HW,2013-09-25 23:05:00,
2013-09-25 19:30:00,65.5,62.6,29.89,West,270,0.0,0.0,90,0.00,,,0.22,WUHU216HW,2013-09-25 23:30:00,
2013-09-25 19:35:00,65.5,62.6,29.89,West,270,0.0,0.0,90,0.00,,,0.22,WUHU216HW,2013-09-25 23:35:00,
2013-09-25 20:00:00,65.2,62.2,29.89,West,270,0.0,0.0,90,0.00,,,0.22,WUHU216HW,2013-09-26 00:00:00,
2013-09-25 20:05:00,65.2,62.2,29.89,West,270,0.0,0.0,90,0.00,,,0.22,WUHU216HW,2013-09-26 00:05:00,
2013-09-25 20:30:00,65.0,62.0,29.89,West,270,0.0,0.0,90,0.00,,,0.22,WUHU216HW,2013-09-26 00:30:00,
2013-09-25 20:35:00,65.0,62.0,29.89,West,270,0.0,0.0,90,0.00,,,0.22,WUHU216HW,2013-09-26 00:35:00,
2013-09-25 21:00:00,64.8,61.9,29.90,West,270,0.0,0.0,90,0.00,,,0.22,WUHU216HW,2013-09-26 01:00:00,
2013-09-25 21:05:00,64.8,61.9,29.90,West,270,0.0,0.0,90,0.00,,,0.22,WUHU216HW,2013-09-26 01:05:00,
2013-09-25 21:30:00,64.8,62.2,29.91,West,270,0.0,0.0,91,0.00,,,0.22,WUHU216HW,2013-09-26 01:30:00,
2013-09-25 21:35:00,64.8,62.2,29.91,West,270,0.0,0.0,91,0.00,,,0.22,WUHU216HW,2013-09-26 01:35:00,
2013-09-25 22:00:00,64.6,62.0,29.91,West,270,0.0,0.0,91,0.00,,,0.22,WUHU216HW,2013-09-26 02:00:00,
2013-09-25 22:05:00,64.6,62.0,29.91,West,270,0.0,0.0,91,0.00,,,0.22,WUHU216HW,2013-09-26 02:05:00,
2013-09-25 22:30:00,64.3,61.7,29.91,West,270,0.0,0.0,91,0.00,,,0.22,WUHU216HW,2013-09-26 02:30:00,
2013-09-25 22:35:00,64.3,61.7,29.91,West,270,0.0,0.0,91,0.00,,,0.22,WUHU216HW,2013-09-26 02:35:00,
2013-09-25 23:00:00,64.3,61.7,29.91,West,270,0.0,0.0,91,0.00,,,0.22,WUHU216HW,2013-09-26 03:00:00,
2013-09-25 23:05:00,64.3,61.7,29.91,West,270,0.0,0.0,91,0.00,,,0.22,WUHU216HW,2013-09-26 03:05:00,
2013-09-25 23:30:00,64.1,61.5,29.92,West,270,0.0,0.0,91,0.00,,,0.22,WUHU216HW,2013-09-26 03:30:00,
2013-09-25 23:35:00,64.1,61.5,29.92,West,270,0.0,0.0,91,0.00,,,0.22,WUHU216HW,2013-09-26 03:35:00,